This demonstration page uses our WeatherBlox Daily Observations layout. Learn more.

Left ArrowRight Arrow

41.12389, -100.76542

Hourly Observations for March 5, 2021

Temp ( °F °C ) Dew Point ( °F °C ) Humidity (%) Winds ( mph kmh ) Pressure ( in mb ) Visibility ( mi km ) Precip ( " mm )
12:53 am 00:53 Clear 38 3.3 29 -1.7 70 70 E 6 9 30.16 1021 10 16 0.00 0.00
1:53 am 01:53 Clear 35 1.7 29 -1.7 78 78 ESE 3 6 30.17 1022 10 16 0.00 0.00
2:53 am 02:53 Clear 35 1.7 28 -2.2 76 76 Calm 30.17 1022 10 16 0.00 0.00
3:53 am 03:53 Clear 31 -0.6 26 -3.3 82 82 Calm 30.19 1022 10 16 0.00 0.00
4:53 am 04:53 Clear 27 -2.8 26 -3.3 96 96 NW 5 7 30.23 1024 10 16 0.00 0.00
5:53 am 05:53 Clear 26 -3.3 23 -5 88 88 NNW 3 6 30.27 1025 10 16 0.00 0.00
6:53 am 06:53 Clear 25 -3.9 21 -6.1 85 85 Calm 30.29 1026 10 16 0.00 0.00
7:53 am 07:53 Sunny 28 -2.2 25 -3.9 88 88 Calm 30.31 1026 8 13 0.00 0.00
8:53 am 08:53 Sunny 36 2.2 30 -1.1 79 79 Calm 30.32 1027 10 16 0.00 0.00
9:53 am 09:53 Sunny 45 7.2 33 0.6 63 63 W 3 6 30.32 1027 10 16 0.00 0.00
10:53 am 10:53 Sunny 52 11.1 34 1.1 50 50 VRB 3 6 30.30 1026 10 16 0.00 0.00
11:53 am 11:53 Sunny 60 15.6 33 0.6 36 36 VRB 3 6 30.28 1025 10 16 0.00 0.00
12:53 pm 12:53 Sunny 63 17.2 28 -2.2 27 27 Calm 30.26 1025 10 16 0.00 0.00
1:53 pm 13:53 Sunny 66 18.9 26 -3.3 22 22 N 5 7 30.23 1024 10 16 0.00 0.00
2:53 pm 14:53 Sunny 67 19.4 27 -2.8 22 22 VRB 3 6 30.21 1023 10 16 0.00 0.00
3:53 pm 15:53 Sunny 67 19.4 27 -2.8 22 22 Calm 30.20 1023 10 16 0.00 0.00
4:53 pm 16:53 Sunny 67 19.4 27 -2.8 22 22 SSW 5 7 30.21 1023 10 16 0.00 0.00
5:53 pm 17:53 Sunny 64 17.8 27 -2.8 25 25 S 5 7 30.21 1023 10 16 0.00 0.00
6:53 pm 18:53 Clear 53 11.7 28 -2.2 38 38 S 3 6 30.23 1024 10 16 0.00 0.00
7:53 pm 19:53 Clear 47 8.3 28 -2.2 48 48 SE 3 6 30.24 1024 10 16 0.00 0.00
8:53 pm 20:53 Clear 40 4.4 27 -2.8 60 60 ESE 5 7 30.24 1024 10 16 0.00 0.00
9:53 pm 21:53 Clear 42 5.6 28 -2.2 58 58 ESE 6 9 30.23 1024 10 16 0.00 0.00
10:53 pm 22:53 Clear 48 8.9 29 -1.7 48 48 SSE 6 9 30.21 1023 10 16 0.00 0.00
11:53 pm 23:53 Clear 44 6.7 28 -2.2 53 53 ESE 7 11 30.20 1023 10 16 0.00 0.00

Powered by AerisWeather